カタログに戻る

NOAA 16 DEB

運用中PO
NORAD 42344·DEBRIS·🇺🇸 United States

打ち上げ Sep 21, 2000 から Vandenberg Space Force Base

Loading…

次のパス (今後24時間)

TLE

最新Source: Space-Track

元期: Sep 13, 2026, 08:02 UTC

1 42344U 00055QL  26256.33482096  .00007015  00000-0  14167-2 0  9997
2 42344  98.7401  38.1674 0027904  79.0217 281.4119 14.61487906542424

AllMySatでNOAA 16 DEBをリアルタイム追跡

Download on the App Store